Johnstown, NE

4:53 AM CST on February 25, 2017 (GMT -0600)
Ainsworth Municipal

Weather History for KANW - December, 2012

Change the Weather History Date:

Tuesday, December 4, 2012

  Actual Average Record
Temperature  
Mean Temperature 42 °F -  
Max Temperature 56 °F 39 °F 62 °F (1998)
Min Temperature 28 °F 20 °F 1 °F (2005)
Degree Days  
Heating Degree Days 23    
Moisture  
Dew Point 20 °F    
Average Humidity 49    
Maximum Humidity 73    
Minimum Humidity 18    
Precipitation  
Precipitation 0.00 in - - ()
Sea Level Pressure  
Sea Level Pressure 30.18 in    
Wind  
Wind Speed 8 mph (SW)    
Max Wind Speed 12 mph    
Max Gust Speed 16 mph    
Visibility 10 miles    
Events      
Averages and records for this station are not official NWS values.
T = Trace of Precipitation, MM = Missing Value Source: NWS Daily Summary

Daily Weather History Graph

Daily Weather History Graph

Search for Another Location

Airport or City:

Trip Planner

Search our weather history database for the weather conditions in past years. The results will help you decide how hot, cold, wet, or windy it might be!

Date:

Astronomy

Dec. 04, 2012 Rise Set
Actual Time 7:53 AM CST 5:06 PM CST
Civil Twilight 7:22 AM CST 5:38 PM CST
Nautical Twilight 6:46 AM CST 6:13 PM CST
Astronomical Twilight 6:12 AM CST 6:47 PM CST
Moon 11:01 PM CST (12/4) 11:44 AM CST (12/4)
Length of Visible Light 10h 16m
Length of Day
9h 13m
Waning Gibbous, 69% of the Moon is Illuminated
Dec 4
Waning Gibbous
Dec 6
Last Quarter
Dec 13
New
Dec 19
First Quarter
Dec 28
Full

Hourly Weather History & Observations

Time (CST) Temp. Windchill Dew Point Humidity Pressure Visibility Wind Dir Wind Speed Gust Speed Precip Events Conditions
12:15 AM 32.5 °F 24.2 °F 21.2 °F 63% 30.10 in 10.0 mi WSW 10.4 mph - N/A   Clear
12:35 AM 33.1 °F 24.9 °F 20.8 °F 61% 30.11 in 10.0 mi WSW 10.4 mph - N/A   Clear
12:55 AM 32.0 °F 23.6 °F 21.2 °F 64% 30.10 in 10.0 mi SW 10.4 mph - N/A   Clear
1:15 AM 31.5 °F 24.9 °F 20.8 °F 65% 30.11 in 10.0 mi WSW 6.9 mph - N/A   Clear
1:35 AM 30.7 °F 26.0 °F 20.5 °F 66% 30.11 in 10.0 mi WSW 4.6 mph - N/A   Clear
1:55 AM 31.5 °F 26.8 °F 21.0 °F 65% 30.11 in 10.0 mi WSW 4.6 mph - N/A   Clear
2:15 AM 30.2 °F 23.4 °F 20.5 °F 67% 30.12 in 10.0 mi West 6.9 mph - N/A   Clear
2:35 AM 32.0 °F 25.6 °F 21.2 °F 64% 30.13 in 10.0 mi West 6.9 mph - N/A   Clear
2:55 AM 31.1 °F 23.1 °F 21.2 °F 67% 30.14 in 10.0 mi West 9.2 mph - N/A   Clear
3:15 AM 31.5 °F 25.8 °F 21.6 °F 67% 30.15 in 10.0 mi West 5.8 mph - N/A   Clear
3:35 AM 32.2 °F 24.4 °F 22.1 °F 66% 30.15 in 10.0 mi West 9.2 mph - N/A   Clear
3:55 AM 32.0 °F 23.6 °F 21.7 °F 66% 30.16 in 10.0 mi West 10.4 mph - N/A   Clear
4:15 AM 31.5 °F 23.5 °F 21.9 °F 68% 30.16 in 10.0 mi West 9.2 mph - N/A   Clear
4:35 AM 31.1 °F 23.7 °F 21.7 °F 68% 30.16 in 10.0 mi West 8.1 mph - N/A   Clear
4:55 AM 30.2 °F 23.4 °F 21.4 °F 70% 30.17 in 10.0 mi West 6.9 mph - N/A   Clear
5:15 AM 30.0 °F 22.4 °F 21.2 °F 70% 30.17 in 10.0 mi West 8.1 mph - N/A   Clear
5:35 AM 30.0 °F 23.2 °F 21.2 °F 70% 30.18 in 10.0 mi WSW 6.9 mph - N/A   Clear
5:55 AM 29.8 °F 22.2 °F 21.2 °F 70% 30.18 in 10.0 mi WSW 8.1 mph - N/A   Clear
6:15 AM 29.7 °F 22.0 °F 21.0 °F 70% 30.19 in 10.0 mi WSW 8.1 mph - N/A   Clear
6:35 AM 28.9 °F 21.1 °F 21.2 °F 73% 30.19 in 10.0 mi WSW 8.1 mph - N/A   Clear
6:55 AM 29.1 °F 22.1 °F 21.0 °F 72% 30.21 in 10.0 mi West 6.9 mph - N/A   Clear
7:15 AM 29.5 °F 22.5 °F 20.7 °F 70% 30.22 in 10.0 mi West 6.9 mph - N/A   Clear
7:35 AM 29.8 °F 23.9 °F 21.0 °F 70% 30.23 in 10.0 mi West 5.8 mph - N/A   Clear
7:55 AM 28.9 °F 21.9 °F 20.5 °F 71% 30.23 in 10.0 mi West 6.9 mph - N/A   Clear
8:15 AM 29.1 °F 24.1 °F 20.8 °F 71% 30.23 in 10.0 mi WSW 4.6 mph - N/A   Clear
8:35 AM 31.8 °F 27.3 °F 22.1 °F 67% 30.24 in 10.0 mi WSW 4.6 mph - N/A   Clear
8:55 AM 32.5 °F 26.2 °F 22.3 °F 66% 30.24 in 10.0 mi West 6.9 mph - N/A   Clear
9:15 AM 34.5 °F 29.4 °F 23.5 °F 64% 30.25 in 10.0 mi WSW 5.8 mph - N/A   Clear
9:35 AM 37.0 °F 31.0 °F 23.5 °F 58% 30.25 in 10.0 mi West 8.1 mph - N/A   Clear
9:55 AM 39.4 °F 33.8 °F 23.4 °F 53% 30.26 in 10.0 mi West 8.1 mph - N/A   Clear
10:15 AM 41.9 °F 37.5 °F 23.5 °F 48% 30.27 in 10.0 mi West 6.9 mph - N/A   Clear
10:35 AM 44.6 °F 41.4 °F 23.7 °F 44% 30.28 in 10.0 mi West 5.8 mph - N/A   Clear
10:55 AM 47.1 °F - 22.1 °F 37% 30.27 in 10.0 mi West 8.1 mph - N/A   Clear
11:15 AM 49.1 °F - 21.2 °F 33% 30.26 in 10.0 mi West 9.2 mph - N/A   Clear
11:35 AM 50.2 °F - 18.1 °F 28% 30.26 in 10.0 mi WNW 11.5 mph - N/A   Clear
11:55 AM 52.2 °F - 18.3 °F 26% 30.26 in 10.0 mi WNW 8.1 mph - N/A   Clear
12:15 PM 52.9 °F - 17.4 °F 25% 30.26 in 10.0 mi WNW 8.1 mph - N/A   Clear
12:35 PM 53.2 °F - 17.1 °F 24% 30.25 in 10.0 mi West 8.1 mph - N/A   Clear
12:55 PM 54.0 °F - 16.7 °F 23% 30.24 in 10.0 mi West 8.1 mph - N/A   Clear
1:15 PM 54.1 °F - 16.2 °F 22% 30.22 in 10.0 mi West 9.2 mph - N/A   Clear
1:35 PM 55.2 °F - 16.3 °F 22% 30.22 in 10.0 mi West 9.2 mph - N/A   Clear
1:55 PM 55.0 °F - 15.3 °F 21% 30.21 in 10.0 mi West 9.2 mph - N/A   Clear
2:15 PM 56.3 °F - 13.5 °F 18% 30.19 in 10.0 mi West 6.9 mph - N/A   Clear
2:35 PM 55.8 °F - 13.1 °F 19% 30.19 in 10.0 mi WSW 9.2 mph - N/A   Clear
2:55 PM 55.4 °F - 13.1 °F 19% 30.19 in 10.0 mi WSW 8.1 mph - N/A   Clear
3:15 PM 55.6 °F - 12.9 °F 19% 30.19 in 10.0 mi SW 6.9 mph - N/A   Clear
3:35 PM 55.0 °F - 13.1 °F 19% 30.18 in 10.0 mi SW 4.6 mph - N/A   Clear
3:55 PM 54.0 °F - 13.8 °F 20% 30.18 in 10.0 mi SW 4.6 mph - N/A   Clear
4:15 PM 52.7 °F - 16.3 °F 24% 30.17 in 10.0 mi SSW 4.6 mph - N/A   Clear
4:35 PM 52.0 °F - 16.7 °F 25% 30.18 in 10.0 mi SSW 5.8 mph - N/A   Clear
4:55 PM 46.0 °F 43.1 °F 18.5 °F 33% 30.18 in 10.0 mi SSW 5.8 mph - N/A   Clear
5:15 PM 43.9 °F 39.9 °F 18.7 °F 37% 30.17 in 10.0 mi South 6.9 mph - N/A   Clear
5:35 PM 43.0 °F 38.8 °F 19.2 °F 39% 30.17 in 10.0 mi SSE 6.9 mph - N/A   Clear
5:55 PM 40.3 °F 37.1 °F 20.5 °F 45% 30.17 in 10.0 mi SSE 4.6 mph - N/A   Clear
6:15 PM 40.5 °F 36.5 °F 20.3 °F 45% 30.17 in 10.0 mi SSE 5.8 mph - N/A   Clear
6:35 PM 40.6 °F 34.8 °F 20.3 °F 44% 30.17 in 10.0 mi SSE 9.2 mph - N/A   Clear
6:55 PM 39.7 °F 34.3 °F 19.4 °F 44% 30.17 in 10.0 mi SSE 8.1 mph - N/A   Clear
7:15 PM 38.3 °F 32.5 °F 19.9 °F 48% 30.17 in 10.0 mi SSE 8.1 mph - N/A   Clear
7:35 PM 34.3 °F 27.0 °F 19.6 °F 55% 30.17 in 10.0 mi SSE 9.2 mph - N/A   Clear
7:55 PM 37.6 °F 31.6 °F 20.1 °F 49% 30.16 in 10.0 mi SSE 8.1 mph - N/A   Clear
8:15 PM 37.2 °F 32.6 °F 19.4 °F 49% 30.17 in 10.0 mi SSE 5.8 mph - N/A   Clear
8:35 PM 36.3 °F 31.6 °F 19.6 °F 51% 30.17 in 10.0 mi SSE 5.8 mph - N/A   Clear
8:55 PM 36.5 °F 31.0 °F 19.8 °F 51% 30.17 in 10.0 mi SSE 6.9 mph - N/A   Clear
9:15 PM 35.1 °F 28.6 °F 19.9 °F 54% 30.16 in 10.0 mi SSE 8.1 mph - N/A   Clear
9:35 PM 36.5 °F 29.2 °F 19.6 °F 50% 30.15 in 10.0 mi SSE 10.4 mph - N/A   Clear
9:55 PM 34.2 °F 27.5 °F 19.4 °F 55% 30.15 in 10.0 mi South 8.1 mph - N/A   Clear
10:15 PM 32.4 °F 25.3 °F 19.8 °F 60% 30.15 in 10.0 mi SSE 8.1 mph - N/A   Clear
10:35 PM 35.1 °F 27.9 °F 19.4 °F 53% 30.15 in 10.0 mi SSE 9.2 mph - N/A   Clear
10:55 PM 37.0 °F 29.8 °F 18.9 °F 48% 30.14 in 10.0 mi SSE 10.4 mph - N/A   Clear
11:15 PM 37.9 °F 30.9 °F 18.5 °F 46% 30.13 in 10.0 mi SSE 10.4 mph - N/A   Clear
11:35 PM 38.3 °F 30.9 °F 18.3 °F 45% 30.12 in 10.0 mi South 11.5 mph - N/A   Clear
11:55 PM 38.5 °F 31.6 °F 18.0 °F 44% 30.12 in 10.0 mi South 10.4 mph 16.1 mph N/A   Clear